timestamp,surface_pressure_avg,surface_temp_avg,battery_voltage,lat,long
2019-10-15 00:00:00+00:00,351.133,10.0,12.97,47.84626,-54.09684
2019-10-15 00:10:00+00:00,355.0795,10.0,12.89,47.84626,-54.09684
2019-10-15 00:20:00+00:00,359.3196,10.0,12.97,47.84626,-54.09684
2019-10-15 00:30:00+00:00,359.0346,10.0,12.97,47.84626,-54.09684
2019-10-15 00:40:00+00:00,355.683,10.0,13.05,47.84626,-54.09684
2019-10-15 00:50:00+00:00,351.5496,10.0,13.05,47.84626,-54.09684
2019-10-15 01:00:00+00:00,346.6447,10.0,12.97,47.84626,-54.09684
2019-10-15 01:10:00+00:00,342.6663,10.0,12.89,47.84626,-54.09684
2019-10-15 01:20:00+00:00,335.1447,10.0,12.97,47.84626,-54.09684
2019-10-15 01:30:00+00:00,326.0947,10.0,12.97,47.84626,-54.09684
2019-10-15 01:40:00+00:00,319.7496,10.0,12.97,47.84626,-54.09684
2019-10-15 01:50:00+00:00,321.7747,10.0,13.05,47.84626,-54.09684
2019-10-15 02:00:00+00:00,313.653,10.0,12.97,47.84626,-54.09684
2019-10-15 02:10:00+00:00,307.2863,10.0,12.89,47.84626,-54.09684
2019-10-15 02:20:00+00:00,309.438,10.0,12.97,47.84626,-54.09684
2019-10-15 02:30:00+00:00,305.308,10.0,12.97,47.84626,-54.09684
2019-10-15 02:40:00+00:00,292.3098,9.92,12.97,47.84626,-54.09684
2019-10-15 02:50:00+00:00,289.3113,9.98,12.97,47.84626,-54.09684
2019-10-15 03:00:00+00:00,282.603,9.98,12.97,47.84626,-54.09684
2019-10-15 03:10:00+00:00,262.7114,9.97,12.89,47.84626,-54.09684
2019-10-15 03:20:00+00:00,252.7147,9.9,12.97,47.84626,-54.09684
2019-10-15 03:30:00+00:00,254.5082,9.92,12.97,47.84626,-54.09684
2019-10-15 03:40:00+00:00,246.4881,9.97,12.97,47.84626,-54.09684
2019-10-15 03:50:00+00:00,234.2598,9.9,12.97,47.84626,-54.09684
2019-10-15 04:00:00+00:00,227.7365,9.89,12.89,47.84626,-54.09684
2019-10-15 04:10:00+00:00,221.3564,9.9,12.89,47.84626,-54.09684
2019-10-15 04:20:00+00:00,213.6731,9.76,12.97,47.84626,-54.09684
2019-10-15 04:30:00+00:00,209.4265,9.6,12.97,47.84626,-54.09684
2019-10-15 04:40:00+00:00,204.7098,9.8,12.97,47.84626,-54.09684
2019-10-15 04:50:00+00:00,196.2698,9.9,12.97,47.84626,-54.09684
2019-10-15 05:00:00+00:00,187.9132,9.9,12.89,47.84626,-54.09684
2019-10-15 05:10:00+00:00,187.8449,9.9,12.81,47.84626,-54.09684
2019-10-15 05:20:00+00:00,181.8265,9.9,12.97,47.84626,-54.09684
2019-10-15 05:30:00+00:00,172.4698,9.9,12.97,47.84626,-54.09684
2019-10-15 05:40:00+00:00,172.2349,9.9,12.97,47.84626,-54.09684
2019-10-15 05:50:00+00:00,177.0482,9.9,12.97,47.84626,-54.09684
2019-10-15 06:00:00+00:00,177.7698,9.9,12.89,47.84626,-54.09684
2019-10-15 06:10:00+00:00,176.9931,9.9,12.81,47.84626,-54.09684
2019-10-15 06:20:00+00:00,183.9215,9.9,12.97,47.84626,-54.09684
2019-10-15 06:30:00+00:00,187.7598,9.9,12.97,47.84626,-54.09684
2019-10-15 06:40:00+00:00,187.9281,9.9,12.97,47.84626,-54.09684
2019-10-15 06:50:00+00:00,195.3998,9.9,12.97,47.84626,-54.09684
2019-10-15 07:00:00+00:00,198.4748,9.9,12.89,47.84626,-54.09684
2019-10-15 07:10:00+00:00,199.7181,9.9,12.81,47.84626,-54.09684
2019-10-15 07:20:00+00:00,206.6497,9.89,12.97,47.84626,-54.09684
2019-10-15 07:30:00+00:00,207.9998,9.85,12.97,47.84626,-54.09684
2019-10-15 07:40:00+00:00,207.9748,9.8,12.97,47.84626,-54.09684
2019-10-15 07:50:00+00:00,213.1314,9.8,12.97,47.84626,-54.09684
2019-10-15 08:00:00+00:00,219.6381,9.8,12.89,47.84626,-54.09684
2019-10-15 08:10:00+00:00,227.7864,9.8,12.81,47.84626,-54.09684
2019-10-15 08:20:00+00:00,236.6881,9.8,12.89,47.84626,-54.09684
2019-10-15 08:30:00+00:00,243.5264,9.8,12.97,47.84626,-54.09684
2019-10-15 08:40:00+00:00,245.4565,9.8,12.97,47.84626,-54.09684
2019-10-15 08:50:00+00:00,249.5698,9.8,12.97,47.84626,-54.09684
2019-10-15 09:00:00+00:00,255.4364,9.8,12.89,47.84626,-54.09684
2019-10-15 09:10:00+00:00,257.3265,9.8,12.81,47.84626,-54.09684
2019-10-15 09:20:00+00:00,258.1814,9.8,12.89,47.84626,-54.09684
2019-10-15 09:30:00+00:00,261.5081,9.8,12.89,47.84626,-54.09684
2019-10-15 09:40:00+00:00,265.1731,9.8,12.97,47.84626,-54.09684
2019-10-15 09:50:00+00:00,273.1531,9.8,12.97,47.84626,-54.09684
2019-10-15 10:00:00+00:00,281.2881,9.8,12.89,47.84626,-54.09684
2019-10-15 10:10:00+00:00,286.463,9.8,12.81,47.84626,-54.09684
2019-10-15 10:20:00+00:00,289.428,9.8,12.89,47.84626,-54.09684
2019-10-15 10:30:00+00:00,300.8614,9.8,12.89,47.84626,-54.09684
2019-10-15 10:40:00+00:00,311.4214,9.8,12.97,47.84626,-54.09684
2019-10-15 10:50:00+00:00,316.6897,9.8,12.97,47.84626,-54.09684
2019-10-15 11:00:00+00:00,321.6946,9.8,12.89,47.84626,-54.09684
2019-10-15 11:10:00+00:00,333.0547,9.8,12.81,47.84626,-54.09684
2019-10-15 11:20:00+00:00,337.4631,9.8,12.97,47.84626,-54.09684
2019-10-15 11:30:00+00:00,343.298,9.8,12.97,47.84626,-54.09684
2019-10-15 11:40:00+00:00,350.158,9.8,13.05,47.84626,-54.09684
2019-10-15 11:50:00+00:00,351.263,9.8,13.05,47.84626,-54.09684
2019-10-15 12:00:00+00:00,348.8096,9.8,13.05,47.84626,-54.09684
2019-10-15 12:10:00+00:00,354.3563,9.8,12.97,47.84626,-54.09684
2019-10-15 12:20:00+00:00,356.0479,9.8,13.05,47.84626,-54.09684
2019-10-15 12:30:00+00:00,352.948,9.8,13.13,47.84626,-54.09684
2019-10-15 12:40:00+00:00,357.6879,9.78,13.29,47.84626,-54.09684
2019-10-15 12:50:00+00:00,360.4079,9.78,13.29,47.84626,-54.09684
2019-10-15 13:00:00+00:00,352.5896,9.79,13.29,47.84626,-54.09684
2019-10-15 13:10:00+00:00,347.3447,9.8,13.29,47.84626,-54.09684
2019-10-15 13:20:00+00:00,351.283,9.79,13.44,47.84626,-54.09684
2019-10-15 13:30:00+00:00,350.9279,9.8,13.44,47.84626,-54.09684
2019-10-15 13:40:00+00:00,342.4963,9.8,13.53,47.84626,-54.09684
2019-10-15 13:50:00+00:00,342.3196,9.8,13.53,47.84626,-54.09684
2019-10-15 14:00:00+00:00,336.0146,9.8,13.44,47.84626,-54.09684
2019-10-15 14:10:00+00:00,322.873,9.8,13.37,47.84626,-54.09684
2019-10-15 14:20:00+00:00,315.6047,9.8,13.53,47.84626,-54.09684
2019-10-15 14:30:00+00:00,318.0613,9.8,13.6,47.84626,-54.09684
2019-10-15 14:40:00+00:00,314.233,9.8,13.6,47.84626,-54.09684
2019-10-15 14:50:00+00:00,298.6447,9.8,13.6,47.84626,-54.09684
2019-10-15 15:00:00+00:00,293.5747,9.8,13.53,47.84626,-54.09684
2019-10-15 15:10:00+00:00,291.3964,9.8,13.44,47.84626,-54.09684
2019-10-15 15:20:00+00:00,281.1381,9.8,13.68,47.84626,-54.09684
2019-10-15 15:30:00+00:00,269.1914,9.8,13.68,47.84626,-54.09684
2019-10-15 15:40:00+00:00,261.4631,9.8,13.76,47.84626,-54.09684
2019-10-15 15:50:00+00:00,253.7364,9.8,13.84,47.84626,-54.09684
2019-10-15 16:00:00+00:00,243.6398,9.8,13.76,47.84626,-54.09684
2019-10-15 16:10:00+00:00,237.1565,9.8,13.76,47.84626,-54.09684
2019-10-15 16:20:00+00:00,235.1631,9.8,14.0,47.84626,-54.09684
2019-10-15 16:30:00+00:00,231.2131,9.8,16.47,47.84626,-54.09684
2019-10-15 16:40:00+00:00,221.6731,9.8,14.8,47.84626,-54.09684
2019-10-15 16:50:00+00:00,208.9731,9.8,14.8,47.84626,-54.09684
2019-10-15 17:00:00+00:00,202.3631,9.8,14.56,47.84626,-54.09684
2019-10-15 17:10:00+00:00,200.7164,9.8,14.48,47.84626,-54.09684
2019-10-15 17:20:00+00:00,192.5214,9.8,14.48,47.84626,-54.09684
2019-10-15 17:30:00+00:00,183.8682,9.8,14.56,47.84626,-54.09684
2019-10-15 17:40:00+00:00,181.5215,9.8,14.48,47.84626,-54.09684
2019-10-15 17:50:00+00:00,180.1948,9.81,14.4,47.84626,-54.09684
2019-10-15 18:00:00+00:00,171.6598,9.85,14.32,47.84626,-54.09684
2019-10-15 18:10:00+00:00,170.2482,9.89,14.24,47.84626,-54.09684
2019-10-15 18:20:00+00:00,174.5732,9.88,14.4,47.84626,-54.09684
2019-10-15 18:30:00+00:00,169.1215,9.89,14.4,47.84626,-54.09684
2019-10-15 18:40:00+00:00,165.5732,9.89,14.4,47.84626,-54.09684
2019-10-15 18:50:00+00:00,171.8165,9.9,14.4,47.84626,-54.09684
2019-10-15 19:00:00+00:00,172.8732,9.9,14.24,47.84626,-54.09684
2019-10-15 19:10:00+00:00,173.8315,9.9,14.08,47.84626,-54.09684
2019-10-15 19:20:00+00:00,182.9214,9.9,14.08,47.84626,-54.09684
2019-10-15 19:30:00+00:00,189.5048,9.9,14.08,47.84626,-54.09684
2019-10-15 19:40:00+00:00,196.3515,9.9,14.08,47.84626,-54.09684
2019-10-15 19:50:00+00:00,202.6615,9.9,14.08,47.84626,-54.09684
2019-10-15 20:00:00+00:00,205.6664,9.9,13.92,47.84626,-54.09684
2019-10-15 20:10:00+00:00,210.6515,9.9,13.76,47.84626,-54.09684
2019-10-15 20:20:00+00:00,215.7148,9.9,13.68,47.84626,-54.09684
2019-10-15 20:30:00+00:00,215.9464,9.9,13.68,47.84626,-54.09684
2019-10-15 20:40:00+00:00,222.9381,9.9,13.6,47.84626,-54.09684
2019-10-15 20:50:00+00:00,232.7998,9.9,13.6,47.84626,-54.09684
2019-10-15 21:00:00+00:00,234.1531,9.9,13.44,47.84626,-54.09684
2019-10-15 21:10:00+00:00,238.1381,9.9,13.29,47.84626,-54.09684
2019-10-15 21:20:00+00:00,248.518,9.9,13.29,47.84626,-54.09684
2019-10-15 21:30:00+00:00,257.0881,9.9,13.29,47.84626,-54.09684
2019-10-15 21:40:00+00:00,259.5531,9.9,13.21,47.84626,-54.09684
2019-10-15 21:50:00+00:00,263.3114,9.9,13.21,47.84626,-54.09684
2019-10-15 22:00:00+00:00,271.3798,9.9,13.13,47.84626,-54.09684
2019-10-15 22:10:00+00:00,279.823,9.9,12.97,47.84626,-54.09684
2019-10-15 22:20:00+00:00,283.9431,9.9,13.05,47.84626,-54.09684
2019-10-15 22:30:00+00:00,289.1897,9.9,13.05,47.84626,-54.09684
2019-10-15 22:40:00+00:00,294.763,9.9,13.05,47.84626,-54.09684
2019-10-15 22:50:00+00:00,302.733,9.9,13.05,47.84626,-54.09684
2019-10-15 23:00:00+00:00,314.283,9.9,12.97,47.84626,-54.09684
2019-10-15 23:10:00+00:00,323.4329,9.9,12.89,47.84626,-54.09684
2019-10-15 23:20:00+00:00,326.1813,9.9,12.97,47.84626,-54.09684
2019-10-15 23:30:00+00:00,329.0063,9.9,12.97,47.84626,-54.09684
2019-10-15 23:40:00+00:00,337.0345,9.9,13.05,47.84626,-54.09684
2019-10-15 23:50:00+00:00,343.0496,9.88,13.05,47.84626,-54.09684
